CW0608 Weather Reports


Display with metric or nautical units.
time (UTC)temp
F
wind
direction
speed
MPH
gust
MPH
rain 1hr
in
rain 24hr
in
rain mn
in
humidity
%
barometer
mb
20260905004304 76 287 0.0 1.0 0.00 0.13 0.02 95 1012.2
20260905003804 76 287 0.0 0.0 0.00 0.13 0.02 94 1012.1
20260905000804 77 287 0.0 1.0 0.00 0.13 0.02 91 1012.1
20260904235804 77 287 0.0 0.0 0.00 0.13 0.02 91 1012.2
20260904234804 78 287 0.0 0.0 0.00 0.13 0.02 91 1012.2
20260904234303 78 287 0.0 0.0 0.00 0.13 0.02 90 1012.3
20260904233305 78 287 0.0 0.0 0.00 0.13 0.02 89 1012.4
20260904232804 79 287 0.0 0.0 0.00 0.13 0.02 88 1012.5
20260904232306 79 287 0.0 0.0 0.00 0.13 0.02 88 1012.5
20260904231305 80 287 0.0 0.0 0.00 0.13 0.02 87 1012.4
20260904230804 80 287 0.0 0.0 0.00 0.13 0.02 87 1012.4
20260904230304 80 287 0.0 0.0 0.00 0.13 0.02 86 1012.5
20260904225804 80 287 0.0 2.0 0.00 0.13 0.02 85 1012.4
20260904225306 81 287 1.0 2.0 0.00 0.13 0.02 86 1012.4
20260904224804 80 287 1.0 2.0 0.00 0.13 0.02 86 1012.2
20260904224304 80 292 0.0 1.0 0.00 0.13 0.02 86 1012.1
20260904223805 80 292 0.0 1.0 0.00 0.13 0.02 87 1012.2
20260904222805 80 292 0.0 1.0 0.00 0.13 0.02 85 1012.4
20260904221804 81 292 0.0 0.0 0.00 0.13 0.02 84 1012.6
20260904221304 81 292 0.0 0.0 0.00 0.13 0.02 85 1012.7
20260904213304 82 292 1.0 2.0 0.00 0.13 0.02 79 1012.8
20260904212804 82 292 0.0 2.0 0.00 0.13 0.02 80 1012.9
20260904211805 82 292 0.0 1.0 0.00 0.13 0.02 80 1012.8
20260904210304 83 292 0.0 2.0 0.00 0.13 0.02 77 1013.0
20260904205804 84 292 1.0 2.0 0.00 0.13 0.02 74 1013.1
20260904205305 84 292 1.0 3.0 0.00 0.13 0.02 74 1013.1
20260904204804 84 292 0.0 3.0 0.00 0.13 0.02 73 1013.1
20260904203305 85 269 0.0 5.0 0.00 0.13 0.02 71 1013.4
20260904202804 85 274 2.0 5.0 0.00 0.13 0.02 69 1013.3
20260904202306 85 296 2.0 5.0 0.00 0.13 0.02 70 1013.4
20260904201804 85 317 3.0 7.0 0.00 0.13 0.02 70 1013.4
20260904193804 88 280 2.0 6.0 0.00 0.13 0.02 67 1013.1
20260904191805 87 0 1.0 5.0 0.00 0.13 0.02 66 1013.5
20260904190804 88 255 2.0 7.0 0.00 0.13 0.02 63 1013.7
20260904190304 87 308 3.0 9.0 0.00 0.13 0.02 65 1013.7
20260904185306 87 350 3.0 8.0 0.00 0.13 0.02 64 1013.9
20260904184805 88 16 2.0 8.0 0.00 0.13 0.02 64 1014.0
20260904184304 87 263 2.0 9.0 0.00 0.13 0.02 63 1014.1
20260904183304 87 259 6.0 12.0 0.00 0.13 0.02 62 1014.1
20260904182306 87 239 3.0 8.0 0.00 0.13 0.02 64 1014.2
20260904181804 87 252 2.0 8.0 0.00 0.13 0.02 67 1014.1
20260904175806 86 339 2.0 9.0 0.00 0.13 0.02 67 1014.2
20260904174805 87 287 3.0 8.0 0.00 0.13 0.02 66 1014.2
20260904173804 87 327 1.0 8.0 0.00 0.13 0.02 67 1014.1
20260904172805 86 285 3.0 12.0 0.00 0.13 0.02 64 1014.2
20260904170804 85 42 1.0 9.0 0.00 0.13 0.02 70 1014.3
20260904170304 85 332 3.0 9.0 0.00 0.13 0.02 67 1014.4
20260904165804 84 268 3.0 6.0 0.00 0.13 0.02 68 1014.5
20260904164804 84 343 3.0 10.0 0.00 0.13 0.02 68 1014.5
20260904164304 84 249 2.0 9.0 0.00 0.13 0.02 70 1014.5
20260904162306 84 264 5.0 12.0 0.00 0.15 0.02 70 1014.7
20260904161805 83 272 5.0 9.0 0.00 0.17 0.02 72 1014.7
20260904160806 83 275 6.0 10.0 0.00 0.18 0.02 72 1014.7
20260904160303 83 228 5.0 12.0 0.00 0.18 0.02 72 1014.8
20260904155306 83 244 5.0 12.0 0.00 0.18 0.02 72 1014.8
20260904151803 80 259 3.0 10.0 0.00 0.18 0.02 79 1015.0
20260904150803 79 272 2.0 8.0 0.00 0.18 0.02 79 1014.9
20260904150305 79 190 2.0 8.0 0.00 0.18 0.02 79 1014.9
20260904145306 79 230 3.0 12.0 0.00 0.18 0.02 79 1014.9
20260904144303 79 330 5.0 12.0 0.00 0.18 0.02 81 1015.1
20260904143803 78 257 1.0 9.0 0.00 0.18 0.02 81 1015.1
20260904142306 78 260 4.0 12.0 0.00 0.18 0.02 81 1015.1
20260904141304 77 281 3.0 8.0 0.00 0.18 0.02 83 1015.0
20260904140804 77 318 2.0 8.0 0.00 0.18 0.02 84 1014.9
20260904135804 76 268 2.0 10.0 0.00 0.18 0.02 85 1014.9
20260904135306 76 266 3.0 8.0 0.00 0.18 0.02 86 1014.9
20260904134805 76 298 3.0 12.0 0.00 0.18 0.02 85 1014.8
20260904133805 76 306 4.0 10.0 0.00 0.18 0.02 86 1014.8
20260904132306 75 299 3.0 9.0 0.00 0.18 0.02 87 1014.8
20260904131304 75 289 2.0 10.0 0.00 0.18 0.02 88 1014.8
20260904125803 74 274 2.0 7.0 0.00 0.18 0.02 90 1015.0
20260904125305 74 299 2.0 7.0 0.00 0.18 0.02 91 1015.0
20260904123805 73 336 2.0 5.0 0.00 0.18 0.02 93 1015.1
20260904123304 73 298 1.0 5.0 0.00 0.18 0.02 94 1015.2
20260904122804 73 304 2.0 5.0 0.00 0.18 0.02 94 1015.2
20260904121304 73 254 1.0 3.0 0.00 0.18 0.02 95 1015.2
20260904120804 72 254 0.0 2.0 0.00 0.18 0.02 96 1015.0
20260904114803 71 254 1.0 3.0 0.01 0.18 0.02 97 1014.7
20260904113804 71 254 1.0 3.0 0.01 0.18 0.02 98 1014.7
20260904113305 71 254 1.0 3.0 0.01 0.18 0.02 98 1014.7
20260904112804 70 299 1.0 3.0 0.01 0.18 0.02 98 1014.6
20260904112306 70 299 1.0 2.0 0.01 0.18 0.02 98 1014.5
20260904111304 70 299 0.0 3.0 0.01 0.20 0.02 98 1014.8
20260904110804 70 260 0.0 3.0 0.01 0.20 0.02 98 1014.5
20260904110304 70 254 0.0 3.0 0.01 0.20 0.02 98 1014.4
20260904104304 70 254 1.0 3.0 0.00 0.19 0.01 97 1014.2
20260904103303 70 254 0.0 2.0 0.00 0.20 0.01 97 1014.1
20260904102804 70 254 0.0 3.0 0.00 0.20 0.01 97 1014.0
20260904102306 70 254 2.0 3.0 0.00 0.20 0.01 97 1013.9
20260904101805 70 254 1.0 2.0 0.00 0.20 0.01 97 1014.2
20260904100804 70 254 1.0 3.0 0.00 0.20 0.01 97 1014.4
20260904095306 70 272 3.0 5.0 0.00 0.21 0.01 97 1014.7
20260904094305 70 265 2.0 3.0 0.00 0.21 0.01 97 1014.0
20260904092805 70 332 1.0 3.0 0.00 0.21 0.01 97 1013.9
20260904091305 70 332 1.0 2.0 0.00 0.21 0.01 97 1014.0
20260904090306 70 332 0.0 2.0 0.00 0.21 0.01 97 1014.2
20260904083306 71 332 0.0 2.0 0.00 0.21 0.01 97 1014.3
20260904082805 71 332 0.0 3.0 0.00 0.21 0.01 97 1014.1
20260904082306 71 332 1.0 3.0 0.00 0.21 0.01 97 1014.4
20260904081805 71 307 2.0 3.0 0.00 0.21 0.01 97 1014.5
20260904081307 71 201 0.0 1.0 0.00 0.21 0.01 97 1014.2
20260904074805 71 201 1.0 3.0 0.00 0.21 0.01 97 1014.1
20260904073806 71 201 0.0 2.0 0.00 0.21 0.01 97 1014.3
20260904072805 71 201 0.0 1.0 0.00 0.21 0.01 97 1014.2
20260904071806 71 201 1.0 3.0 0.00 0.21 0.01 97 1014.2
20260904064805 71 203 0.0 0.0 0.00 0.21 0.01 97 1013.9
20260904063805 71 203 0.0 1.0 0.00 0.21 0.01 96 1013.7
20260904062805 71 203 1.0 2.0 0.00 0.21 0.01 96 1013.6
20260904062306 71 203 0.0 2.0 0.00 0.21 0.01 96 1013.7
20260904061305 71 203 1.0 2.0 0.00 0.21 0.01 96 1013.5
20260904060305 71 202 1.0 2.0 0.00 0.21 0.01 95 1013.6
20260904054805 72 217 1.0 3.0 0.00 0.21 0.01 95 1013.5
20260904053806 72 242 1.0 3.0 0.00 0.21 0.01 95 1013.8
20260904053305 73 242 1.0 3.0 0.00 0.21 0.01 94 1014.0
20260904052805 73 202 1.0 3.0 0.00 0.21 0.01 95 1013.8
20260904052307 73 231 2.0 9.0 0.01 0.21 0.01 95 1013.7
20260904051805 73 188 2.0 9.0 0.01 0.21 0.01 95 1013.8
20260904051306 73 146 4.0 7.0 0.01 0.21 0.01 95 1013.9
20260904045804 74 304 0.0 6.0 0.02 0.21 0.01 95 1013.6
20260904044805 74 278 2.0 7.0 0.02 0.21 0.01 94 1013.2
20260904043804 75 323 3.0 12.0 0.03 0.21 0.01 94 1013.5
20260904035306 75 256 3.0 7.0 0.11 0.26 0.26 97 1014.2
20260904034804 75 283 2.0 6.0 0.10 0.25 0.25 97 1014.0
20260904033805 74 302 0.0 9.0 0.10 0.25 0.25 96 1013.9
20260904032805 75 317 3.0 20.0 0.09 0.24 0.24 95 1015.1
20260904032306 76 247 7.0 20.0 0.03 0.18 0.18 97 1015.2
20260904031305 76 251 1.0 3.0 0.00 0.15 0.15 97 1015.0
20260904030806 76 190 0.0 1.0 0.00 0.15 0.15 97 1014.9
20260904030305 76 190 0.0 1.0 0.00 0.15 0.15 97 1014.8
20260904024804 76 190 0.0 1.0 0.00 0.15 0.15 97 1014.6
20260904023805 76 190 0.0 1.0 0.00 0.15 0.15 97 1014.9
20260904022805 76 190 0.0 1.0 0.00 0.15 0.15 97 1014.9
20260904022306 76 190 0.0 0.0 0.00 0.15 0.15 97 1014.7
20260904021805 76 190 0.0 0.0 0.00 0.15 0.15 97 1014.5
20260904020806 76 190 0.0 0.0 0.00 0.15 0.15 97 1014.8
20260904020305 76 190 0.0 0.0 0.00 0.15 0.15 97 1014.8
20260904015806 76 190 0.0 0.0 0.00 0.15 0.15 97 1014.8
20260904014804 77 190 0.0 0.0 0.00 0.15 0.15 97 1014.5
20260904013805 76 190 0.0 0.0 0.00 0.15 0.15 97 1014.3
20260904012306 76 190 0.0 0.0 0.00 0.15 0.15 96 1014.4
20260904011805 77 190 0.0 0.0 0.00 0.15 0.15 96 1014.3
20260904010805 77 190 0.0 1.0 0.00 0.15 0.15 96 1014.5
20260904010304 77 190 0.0 1.0 0.00 0.15 0.15 96 1014.7
20260904005804 77 190 0.0 1.0 0.00 0.15 0.15 96 1014.8